RKSSRKSO

Guest
Details From RKSS - Seoul Gimpo
To RKSO - Osan Ab
Flight Number -
Tags Generated
Created
Modified
Stats Distance 31 nm / 57 km
Max Altitude 0 ft / 0 m
Waypoints 2
Social Downloads 0
Likes 0
Share VATSIM

Download

Looking for another format? Having issues loading an existing format? Contact us
Advertisement - Login to hide

Notes

Generated

Route

RKSS RKSO

ID Type Via Altitude Latitude Longitude Leg Dist Tot Dist Heading (true) Name
O RKSS APT - 0 ft / 0 m 37.56798˚ 126.77553˚ - 0 nm - -
O RKSO APT - 0 ft / 0 m 37.08934˚ 127.01424˚ 30 nm 30 nm 158° / 158° -

Altitude Profile

Advertisement - Login to hide

RKSS

Details ICAO RKSS (GMP)
Name Seoul Gimpo
Region South Korea
Timezone Asia/Seoul (UTC+9.0)
Stats Elevation 58 ft / 18 m (AMSL)
Location 37.558310° 126.790584°
Runways 2
Magnetic Variation 8.428° W

METAR

RKSS 261200Z 02001KT CAVOK 20/11 Q1010 NOSIG

Decode

TAF

TAF RKSS 261100Z 2612/2718 32005KT CAVOK TN15/2621Z TX25/2706Z BECMG 2623/2624 20006KT TEMPO 2702/2710 28007KT BECMG 2710/2711 32006KT BECMG 2714/2715 9999 FEW010 BKN030 OVC100 BECMG 2717/2718 FEW010 SCT030

Decode

Departure Runways

ID Width Length Bearing (true) Bearing (mag) Surface Threshold Offset Overrun Length
14L 148 ft / 45 m 11,811 ft / 3,600 m 135.13° 143.56° Asphalt 0 ft / 0 m 394 ft / 120 m
14R 197 ft / 60 m 10,499 ft / 3,200 m 135.08° 143.51° Asphalt 0 ft / 0 m 390 ft / 119 m
32L 197 ft / 60 m 10,499 ft / 3,200 m 315.09° 323.52° Asphalt 0 ft / 0 m 385 ft / 117 m
32R 148 ft / 45 m 11,811 ft / 3,600 m 315.15° 323.58° Asphalt 0 ft / 0 m 394 ft / 120 m

RKSO

Details ICAO RKSO (OSN)
Name OSAN AB
Region South Korea
Timezone Asia/Seoul (UTC+9.0)
Stats Elevation 40 ft / 12 m (AMSL)
Location 37.090617° 127.029593°
Runways 1
Magnetic Variation 8.318° W

METAR

RKSO 261158Z 29004KT 7SM FEW250 20/12 A2983 RMK AO2A SLP104 T01950124 10292 20192 52021 $

Decode

TAF

TAF RKSO 261100Z 2611/2717 27006KT 9000 HZ SKC QNH2980INS BECMG 2615/2616 VRB06KT 8000 BR SCT200 QNH2988INS BECMG 2623/2624 28009KT 9000 HZ FEW040 SCT180 QNH2980INS WND VRB06KT AFT 2710 TX28/2706Z TN12/2621Z

Decode

Destination Runways

ID Width Length Bearing (true) Bearing (mag) Surface Threshold Offset Overrun Length
09 150 ft / 46 m 8,985 ft / 2,739 m 84.03° 92.35° Concrete 0 ft / 0 m 1,007 ft / 307 m
27 150 ft / 46 m 8,985 ft / 2,739 m 264.05° 272.37° Concrete 0 ft / 0 m 998 ft / 304 m

Approach Navaids

Runway Type Ident Frequency Range Bearing (true) Bearing (mag) Slope Elevation
09 Localiser ININ 111.30 MHz 18 nm / 33 km 84.09° 92.41° - 45 ft / 14 m (AMSL)
09 Glidescope ININ 111.30 MHz 10 nm / 19 km 84.00° 92.32° 3.00° 42 ft / 13 m (AMSL)
27 Localiser IOSN 111.30 MHz 18 nm / 33 km 264.02° 272.34° - 39 ft / 12 m (AMSL)
27 Glidescope IOSN 111.30 MHz 10 nm / 19 km 263.69° 272.01° 3.00° 51 ft / 16 m (AMSL)

Popular Alternatives